Location: Unspecified
(0.0000°N, 0.0000°E)
Time: 15:21:31
(UTC+00:00)

AO-73 - Visible Passes

Search period start: 19 October 2020 00:00
Search period end: 29 October 2020 00:00
Orbit: 582 x 662 km, 97.6° (Epoch: 18 October)

Date Brightness Start Highest point End Pass type
(mag) Time Alt. Az. Time Alt. Az. Time Alt. Az.
19 Oct ? 04:59:30 10° NNE 05:03:39 62° E 05:07:45 10° S visible
20 Oct ? 05:17:26 10° N 05:21:36 69° WNW 05:25:43 10° SSW visible
22 Oct ? 04:19:10 10° ENE 04:21:33 15° ESE 04:23:53 10° SE visible
22 Oct ? 18:03:29 10° SW 18:06:20 17° WSW 18:09:12 10° WNW visible
23 Oct ? 04:35:58 10° NE 04:39:29 27° ESE 04:42:58 10° SSE visible
24 Oct ? 04:53:24 10° NNE 04:57:25 50° E 05:01:25 10° S visible
25 Oct ? 05:11:13 10° N 05:15:21 84° WNW 05:19:29 10° SSW visible
27 Oct ? 04:13:38 10° ENE 04:15:18 12° ESE 04:16:57 10° SE visible
28 Oct ? 04:30:01 10° NE 04:33:14 22° ESE 04:36:27 10° SSE visible
28 Oct ? 18:16:50 10° WSW 18:18:05 11° WSW 18:19:21 10° W visible
